Weather History for Ainsworth, NE

Change the Weather History Date:

Sunday, March 10, 2013

  Actual Average Record
Temperature  
Mean Temperature 20 °F -  
Max Temperature 29 °F 39 °F 72 °F (2012)
Min Temperature 10 °F 20 °F -7 °F (1998)
Degree Days  
Heating Degree Days 45    
Moisture  
Dew Point 14 °F    
Average Humidity 78    
Maximum Humidity 87    
Minimum Humidity 69    
Precipitation  
Precipitation 0.00 in - - ()
Sea Level Pressure  
Sea Level Pressure 30.06 in    
Wind  
Wind Speed 24 mph (NNW)    
Max Wind Speed 32 mph    
Max Gust Speed 39 mph    
Visibility 6 miles    
Events Snow    
Averages and records for this station are not official NWS values.
T = Trace of Precipitation, MM = Missing Value Source: NWS Daily Summary

Daily Weather History Graph

Daily Weather History Graph

Search for Another Location

Airport:

Trip Planner

Search our weather history database for the weather conditions in past years. The results will help you decide how hot, cold, wet, or windy it might be!

Date:

Astronomy

Mar. 10, 2013 Rise Set
Actual Time 8:00 AM CDT 7:40 PM CDT
Civil Twilight 7:31 AM CDT 8:08 PM CDT
Nautical Twilight 6:59 AM CDT 8:41 PM CDT
Astronomical Twilight 6:26 AM CDT 9:14 PM CDT
Moon 7:01 AM CDT (3/10) 6:50 PM CDT (3/10)
Length of Visible Light 12h 37m
Length of Day
11h 40m
Waning Crescent, 2% of the Moon is Illuminated
Mar 10
Waning Crescent
Mar 11
New
Mar 19
First Quarter
Mar 27
Full
Apr 2
Last Quarter

Hourly Weather History & Observations

Time (CDT) Temp. Windchill Dew Point Humidity Pressure Visibility Wind Dir Wind Speed Gust Speed Precip Events Conditions
12:15 AM 29.1 °F 14.2 °F 25.7 °F 87% 29.96 in 2.5 mi NNW 27.6 mph 34.5 mph N/A Snow Light Snow
12:35 AM 28.0 °F 11.8 °F 23.9 °F 84% 29.97 in 2.0 mi North 32.2 mph 39.1 mph N/A Snow Light Snow
12:55 AM 26.8 °F 10.8 °F 21.7 °F 81% 29.97 in 2.0 mi NNW 28.8 mph 39.1 mph N/A Snow Light Snow
1:15 AM 26.4 °F 10.1 °F 20.7 °F 79% 29.98 in 3.0 mi NNW 29.9 mph 36.8 mph N/A   Haze
1:35 AM 25.5 °F 9.4 °F 19.8 °F 79% 29.98 in 4.0 mi NNW 27.6 mph 35.7 mph N/A   Haze
1:55 AM 24.8 °F 7.6 °F 19.2 °F 79% 30.00 in 2.5 mi NNW 31.1 mph 36.8 mph N/A   Haze
3:15 AM 24.3 °F 7.7 °F 19.0 °F 80% 30.01 in 4.0 mi NNW 27.6 mph 33.4 mph N/A   Haze
3:35 AM 23.5 °F 6.7 °F 18.3 °F 80% 30.01 in 2.0 mi NNW 27.6 mph 38.0 mph N/A Snow Light Snow
3:55 AM 22.5 °F 4.4 °F 16.9 °F 79% 30.01 in 2.0 mi NNW 31.1 mph 38.0 mph N/A Snow Light Snow
4:15 AM 21.9 °F 4.5 °F 16.0 °F 78% 30.01 in 2.5 mi NNW 27.6 mph 39.1 mph N/A   Haze
4:35 AM 21.0 °F 3.9 °F 14.9 °F 77% 30.01 in 4.0 mi NNW 25.3 mph 34.5 mph N/A   Haze
4:55 AM 20.3 °F 3.0 °F 14.4 °F 78% 30.01 in 4.0 mi NNW 25.3 mph 33.4 mph N/A   Haze
5:15 AM 19.6 °F 2.7 °F 13.6 °F 78% 30.03 in 5.0 mi North 23.0 mph 34.5 mph N/A   Haze
5:35 AM 19.4 °F 2.8 °F 13.6 °F 78% 30.04 in 10.0 mi NNW 21.9 mph 25.3 mph N/A   Clear
5:55 AM 18.5 °F 1.3 °F 12.9 °F 79% 30.05 in 7.0 mi NNW 23.0 mph 28.8 mph N/A   Scattered Clouds
6:15 AM 18.5 °F 1.3 °F 12.9 °F 79% 30.05 in 7.0 mi NNW 23.0 mph - N/A   Scattered Clouds
6:35 AM 18.3 °F -0.0 °F 13.1 °F 80% 30.06 in 5.0 mi NNW 26.5 mph 32.2 mph N/A   Haze
6:55 AM 17.6 °F 1.3 °F 14.0 °F 86% 30.07 in 5.0 mi NNW 19.6 mph 32.2 mph N/A   Haze
7:15 AM 17.6 °F -1.3 °F 14.0 °F 86% 30.08 in 5.0 mi NNW 27.6 mph 33.4 mph N/A   Haze
7:35 AM 18.1 °F 0.8 °F 13.1 °F 81% 30.08 in 4.0 mi NNW 23.0 mph 31.1 mph N/A   Haze
7:55 AM 17.6 °F -1.6 °F 13.1 °F 83% 30.09 in 2.5 mi North 28.8 mph 35.7 mph N/A Snow Light Snow
8:15 AM 17.4 °F -1.9 °F 12.7 °F 82% 30.09 in 1.0 mi NNW 28.8 mph 34.5 mph N/A Snow Light Snow
8:35 AM 17.1 °F -3.0 °F 12.6 °F 82% 30.09 in 0.8 mi NNW 31.1 mph 36.8 mph N/A Snow Light Snow
8:55 AM 16.9 °F -2.6 °F 12.4 °F 82% 30.09 in 0.8 mi NNW 28.8 mph 36.8 mph N/A Snow Light Snow
9:15 AM 17.1 °F -2.0 °F 12.7 °F 83% 30.09 in 0.8 mi NNW 27.6 mph 35.7 mph N/A Snow Light Snow
9:35 AM 16.7 °F -2.2 °F 11.3 °F 79% 30.10 in 0.8 mi North 26.5 mph 35.7 mph N/A Snow Light Snow
9:55 AM 16.7 °F -2.5 °F 11.3 °F 79% 30.10 in 1.2 mi North 27.6 mph 35.7 mph N/A Snow Light Snow
10:15 AM 17.1 °F 0.1 °F 11.3 °F 78% 30.11 in 2.5 mi NNW 20.7 mph - N/A Snow Light Snow
10:35 AM 17.2 °F -0.8 °F 10.9 °F 76% 30.12 in 3.0 mi NNW 24.2 mph 32.2 mph N/A   Haze
10:55 AM 17.4 °F -2.2 °F 11.1 °F 76% 30.12 in 1.8 mi NNW 29.9 mph 34.5 mph N/A Snow Light Snow
11:15 AM 18.1 °F -0.9 °F 12.4 °F 78% 30.12 in 1.0 mi NNW 28.8 mph 38.0 mph N/A Snow Light Snow
11:35 AM 18.5 °F 0.9 °F 12.4 °F 77% 30.14 in 1.8 mi North 24.2 mph 31.1 mph N/A Snow Light Snow
11:55 AM 18.9 °F 1.0 °F 12.6 °F 76% 30.13 in 1.5 mi NNW 25.3 mph 35.7 mph N/A Snow Light Snow
12:15 PM 19.4 °F 2.1 °F 12.7 °F 75% 30.14 in 2.0 mi NNW 24.2 mph 33.4 mph N/A Snow Light Snow
12:35 PM 19.8 °F 1.9 °F 13.1 °F 75% 30.13 in 2.5 mi NNW 26.5 mph 32.2 mph N/A Snow Light Snow
12:55 PM 19.9 °F 2.8 °F 13.1 °F 75% 30.13 in 2.5 mi NNW 24.2 mph 32.2 mph N/A Snow Light Snow
1:15 PM 20.1 °F 2.7 °F 13.6 °F 76% 30.12 in 2.0 mi NNW 25.3 mph 31.1 mph N/A Snow Light Snow
1:35 PM 20.8 °F 4.0 °F 13.8 °F 74% 30.12 in 2.0 mi NNW 24.2 mph 33.4 mph N/A Snow Light Snow
1:55 PM 21.2 °F 3.5 °F 13.8 °F 73% 30.12 in 2.5 mi NNW 27.6 mph 34.5 mph N/A   Haze
2:15 PM 21.7 °F 4.3 °F 14.5 °F 74% 30.11 in 3.0 mi NNW 27.6 mph 32.2 mph N/A Snow Light Snow
2:35 PM 22.3 °F 5.6 °F 15.1 °F 74% 30.10 in 3.0 mi NNW 25.3 mph 31.1 mph N/A Snow Light Snow
2:55 PM 22.5 °F 5.9 °F 15.1 °F 73% 30.09 in 7.0 mi NNW 25.3 mph - N/A   Overcast
3:15 PM 23.2 °F 6.8 °F 15.3 °F 72% 30.08 in 10.0 mi NNW 25.3 mph - N/A   Mostly Cloudy
3:35 PM 23.9 °F 8.4 °F 15.4 °F 70% 30.07 in 10.0 mi NNW 23.0 mph - N/A   Overcast
3:55 PM 24.4 °F 9.5 °F 16.3 °F 71% 30.07 in 10.0 mi NNW 21.9 mph 26.5 mph N/A   Mostly Cloudy
4:15 PM 23.0 °F 6.9 °F 14.9 °F 71% 30.07 in 7.0 mi NNW 24.2 mph 31.1 mph N/A   Scattered Clouds
4:35 PM 23.5 °F 8.3 °F 15.4 °F 71% 30.08 in 10.0 mi NNW 21.9 mph - N/A   Scattered Clouds
4:55 PM 24.4 °F 10.6 °F 15.6 °F 69% 30.08 in 10.0 mi NNW 18.4 mph - N/A   Clear
5:15 PM 24.4 °F 11.0 °F 15.8 °F 70% 30.09 in 10.0 mi North 17.3 mph - N/A   Scattered Clouds
5:35 PM 24.3 °F 11.7 °F 15.8 °F 70% 30.08 in 10.0 mi North 15.0 mph - N/A   Scattered Clouds
5:55 PM 24.1 °F 11.5 °F 15.6 °F 70% 30.08 in 10.0 mi NNW 15.0 mph - N/A   Clear
6:15 PM 23.9 °F 12.9 °F 15.8 °F 71% 30.07 in 10.0 mi North 11.5 mph - N/A   Clear
6:35 PM 23.7 °F 13.3 °F 15.8 °F 72% 30.06 in 10.0 mi NNW 10.4 mph - N/A   Clear
6:55 PM 23.0 °F 13.1 °F 15.6 °F 73% 30.06 in 10.0 mi NNW 9.2 mph - N/A   Clear
7:15 PM 22.5 °F 11.7 °F 15.4 °F 74% 30.05 in 10.0 mi NNW 10.4 mph - N/A   Clear
7:35 PM 21.0 °F 8.6 °F 14.4 °F 75% 30.05 in 10.0 mi NNW 12.7 mph - N/A   Clear
7:55 PM 20.5 °F 10.0 °F 14.4 °F 77% 30.05 in 10.0 mi NW 9.2 mph - N/A   Clear
8:15 PM 21.0 °F 10.6 °F 14.5 °F 76% 30.06 in 10.0 mi NW 9.2 mph - N/A   Clear
8:35 PM 17.6 °F 9.3 °F 12.2 °F 79% 30.05 in 10.0 mi WNW 5.8 mph - N/A   Clear
8:55 PM 17.8 °F 5.9 °F 12.7 °F 81% 30.05 in 10.0 mi NW 10.4 mph - N/A   Clear
9:15 PM 18.1 °F 8.9 °F 13.1 °F 81% 30.06 in 10.0 mi WNW 6.9 mph - N/A   Clear
9:35 PM 18.3 °F 5.9 °F 13.1 °F 80% 30.06 in 10.0 mi NNW 11.5 mph - N/A   Clear
9:55 PM 16.0 °F 4.4 °F 11.3 °F 82% 30.05 in 10.0 mi NW 9.2 mph - N/A   Clear
10:15 PM 16.5 °F 6.9 °F 12.0 °F 82% 30.04 in 10.0 mi NW 6.9 mph - N/A   Clear
10:35 PM 15.8 °F 6.1 °F 11.3 °F 82% 30.03 in 10.0 mi NNW 6.9 mph - N/A   Clear
10:55 PM 15.1 °F 6.4 °F 11.3 °F 85% 30.03 in 10.0 mi NW 5.8 mph - N/A   Clear
11:15 PM 13.8 °F 3.7 °F 9.5 °F 83% 30.03 in 10.0 mi NW 6.9 mph - N/A   Clear
11:35 PM 12.0 °F 2.7 °F 8.1 °F 84% 30.03 in 10.0 mi WNW 5.8 mph - N/A   Clear
11:55 PM 13.5 °F 3.3 °F 9.7 °F 85% 30.02 in 10.0 mi WNW 6.9 mph - N/A   Clear
12:15 AM 11.7 °F 1.1 °F 7.5 °F 83% 30.02 in 10.0 mi WNW 6.9 mph - N/A   Clear
12:35 AM 12.6 °F 4.8 °F 9.0 °F 85% 30.01 in 10.0 mi WNW 4.6 mph - N/A   Clear
12:55 AM 10.9 °F 4.7 °F 7.2 °F 85% 30.00 in 10.0 mi West 3.5 mph - N/A   Clear